[[{"header":{"parameterUnit":"m.s-1","parameterCategory":1,"la1":30.2991,"la2":30.254,"lo1":-89.0895,"lo2":-89.0444,"dy":0.0017,"dx":0.0017,"nx":28,"ny":28,"refTime":"2025-11-27T09:00:00:Z","depth":0,"parameterNumber":2,"parameterNumberName":"U-component_of_WINDS"},"data":[0,0,0,0,0,0,0,0,0,0,0,0,0,0,0,0,0,0,0,0,0,0,0,0,0,0,0,0,0,0,0,0,0,0,0,0,0,0,0,0,0,0,0,0,0,0,0,0,0,0,0,0,0,0,0,0,0,0,-3.6781,-3.6782,0,-3.6819,-3.6819,-3.682,-3.6735,-3.6732,-3.6729,-3.6726,-3.6765,-3.6768,-3.6772,0,0,0,0,0,0,0,0,0,0,0,0,0,-3.6634,-3.6637,-3.6781,-3.6782,-3.6782,-3.6819,-3.6819,-3.682,-3.6735,-3.6732,-3.6728,-3.6725,-3.6764,-3.6768,-3.6772,0,0,0,0,0,0,0,0,0,0,0,0,0,-3.6688,-3.6639,-3.6781,-3.6744,-3.6741,-3.6819,-3.6819,-3.682,-3.6736,-3.6732,-3.6727,-3.6724,-3.6762,-3.6767,-3.6773,-3.6887,0,0,-3.6789,-3.6791,0,0,0,0,0,0,0,0,-3.6685,-3.6693,-3.6749,-3.6747,-3.6744,-3.6768,-3.6781,-3.6843,-3.6737,-3.6738,-3.6726,-3.6722,-3.6769,-3.6774,-3.679,-3.6889,-3.6891,-3.6789,-3.6793,-3.6795,-3.6796,0,0,0,0,0,0,0,-3.6681,-3.6691,-3.6796,-3.675,-3.6747,-3.6725,-3.6728,-3.6793,-3.6776,-3.6737,-3.6731,-3.6737,-3.6767,-3.6785,-3.679,-3.6891,-3.6789,-3.6794,-3.6797,-3.6799,-3.7086,-3.7091,0,0,0,0,0,0,-3.6682,-3.6689,-3.6795,-3.6797,-3.6704,-3.6731,-3.6735,-3.6764,-3.6775,-3.6773,-3.674,-3.6733,-3.6778,-3.6784,-3.6791,-3.6926,-3.6795,-3.68,-3.6803,-3.7082,-3.7087,-3.7092,0,0,0,0,0,0,-3.668,-3.6693,-3.6793,-3.6741,-3.6752,-3.6738,-3.6772,-3.6767,-3.6785,-3.6777,-3.6774,-3.6762,-3.6775,-3.6783,-3.6864,-3.6926,-3.6802,-3.6807,-3.7077,-3.7084,-3.709,-3.7198,0,0,0,0,0,0,-3.6676,-3.6692,-3.6736,-3.6743,-3.6755,-3.6867,-3.6776,-3.6771,-3.6794,-3.6785,-3.6796,-3.6794,-3.6772,-3.6856,-3.6869,-3.6931,-3.6811,-3.7071,-3.708,-3.7088,-3.7189,-3.7207,-3.7223,0,0,0,0,0,-3.6671,-3.6765,-3.6739,-3.6752,-3.681,-3.687,-3.6877,-3.685,-3.68,-3.6844,-3.6838,-3.6794,-3.6917,-3.6865,-3.6879,-3.6944,-3.7067,-3.7077,-3.7087,-3.7181,-3.7204,-3.7223,0,0,0,0,0,0,-3.6766,-3.6765,-3.6736,-3.6835,-3.6854,-3.6856,-3.691,-3.6875,-3.6908,-3.6897,-3.6861,-3.6865,-3.6952,-3.6956,-3.6898,-3.7055,-3.6984,-3.6997,-3.705,-3.7072,-3.7089,-3.7087,-3.6816,0,0,0,0,0,-3.6798,-3.6848,-3.6844,-3.6932,-3.6943,-3.6925,-3.695,-3.6927,-3.6945,-3.6952,-3.6953,-3.6971,-3.7013,-3.7042,-3.7081,-3.7188,-3.7189,-3.7239,-3.7256,-3.7271,-3.7283,-3.734,-3.7362,-3.7125,-3.7125,-3.7125,0,0,-3.6866,-3.6872,-3.6905,-3.6951,-3.6963,-3.7014,-3.6932,-3.699,-3.7028,-3.6961,-3.7037,-3.7038,-3.7056,-3.715,-3.7192,-3.7156,-3.7349,-3.7283,-3.7295,-3.73,-3.7352,-3.7375,-3.7395,-3.7132,-3.713,-3.7129,0,0,-3.7017,-3.7026,-3.71,-3.7113,-3.7131,-3.7119,-3.7137,-3.7144,-3.7142,-3.7218,-3.7169,-3.7212,-3.7287,-3.7302,-3.7319,-3.7474,-3.7434,-3.7487,-3.7578,-3.7634,-3.7653,-3.7669,-3.7725,-3.7745,-3.7499,-3.7499,-3.7499,0,-3.7099,-3.7175,-3.7143,-3.7204,-3.7226,-3.7167,-3.7242,-3.7255,-3.7286,-3.7302,-3.7261,-3.7352,-3.736,-3.7457,-3.7495,-3.7511,-3.753,-3.7486,-3.7653,-3.7669,-3.7684,-3.7736,-3.7758,-3.7506,-3.7505,-3.7504,-3.7504,0,-3.7275,-3.7329,-3.7387,-3.7417,-3.7445,-3.7513,-3.7491,-3.7523,-3.7497,-3.7489,-3.7566,-3.7573,-3.7613,-3.7633,-3.7609,-3.7727,-3.7704,-3.7659,-3.7586,-3.7713,-3.7762,-3.7782,-3.7515,-3.7512,-3.7511,-3.7509,0,0,-3.7489,-3.75,-3.7522,-3.7535,-3.755,-3.759,-3.7655,-3.7693,-3.7722,-3.7744,-3.7797,-3.7861,-3.7819,-3.7838,-3.7814,-3.7863,-3.7986,-3.7811,-3.7811,-3.7844,-3.8117,-3.8152,-3.8176,-3.7959,-3.7963,-3.7965,-3.8116,0,-3.7638,-3.775,-3.7723,-3.7834,-3.7883,-3.7826,-3.7883,-3.7898,-3.7891,-3.7931,-3.7924,-3.797,-3.791,-3.7921,-3.7967,-3.7961,-3.804,-3.795,-3.8009,-3.8011,-3.8008,-3.8202,-3.824,-3.8381,-3.8135,-3.8138,-3.814,0,-3.7828,-3.7858,-3.7974,-3.7981,-3.8,-3.8052,-3.8084,-3.8123,-3.8139,-3.813,-3.8152,-3.8118,-3.8182,-3.8107,-3.8194,-3.8134,-3.8155,-3.8156,-3.8161,-3.8167,-3.8085,-3.8214,-3.8426,-3.8448,-3.817,-3.8168,-3.8165,0,-3.7974,-3.8042,-3.8121,-3.8133,-3.8143,-3.818,-3.8186,-3.8197,-3.8222,-3.825,-3.8266,-3.8301,-3.832,-3.8348,-3.8324,-3.8272,-3.8415,-3.8339,-3.841,-3.8411,-3.8444,-3.8443,-3.8664,-3.8457,-3.8456,-3.8456,-3.8455,0,-3.8145,-3.8218,-3.8186,-3.8235,-3.8315,-3.8282,-3.8362,-3.8361,-3.8371,-3.8418,-3.8371,-3.8416,-3.8381,-3.8422,-3.8404,-3.8479,-3.8488,-3.8483,-3.8478,-3.8488,-3.8489,-3.8503,-3.8493,-3.8461,-3.846,-3.8459,-3.8458,0,-3.8322,-3.8303,-3.8385,-3.8387,-3.8389,-3.8448,-3.8449,-3.8494,-3.8483,-3.8543,-3.8555,-3.8539,-3.8585,-3.8564,-3.8612,-3.86,-3.8697,-3.8677,-3.8692,-3.8687,-3.8761,-3.8755,-3.9,-3.903,-3.8802,-3.8804,-3.8806,0,-3.8433,-3.8488,-3.8496,-3.8524,-3.8533,-3.8578,-3.8603,-3.8572,-3.8599,-3.8621,-3.8663,-3.8705,-3.8738,-3.8814,-3.8806,-3.8843,-3.8825,-3.8908,-3.883,-3.8839,-3.8827,-3.8825,-3.8831,-3.8925,-3.8927,-3.8929,-3.8931,0,-3.8632,-3.862,-3.8658,-3.8693,-3.8724,-3.8749,-3.8771,-3.8796,-3.8765,-3.8799,-3.8846,-3.8871,-3.892,-3.8963,-3.8995,-3.9,-3.8961,-3.8955,-3.8974,-3.8987,-3.8993,-3.8991,-3.8736,-3.8951,-3.8949,-3.8947,-3.8946,-3.8945,-3.878,-3.8827,-3.884,-3.8883,-3.8896,-3.8917,-3.8959,-3.8953,-3.8992,-3.903,-3.9008,-3.9064,-3.9076,-3.9115,-3.9125,-3.9167,-3.9134,-3.9161,-3.9168,-3.9176,-3.9186,-3.8985,-3.9173,-3.9172,-3.9172,-3.9171,-3.9171,0,-3.8979,-3.8984,-3.9024,-3.9055,-3.909,-3.9049,-3.907,-3.9102,-3.9151,-3.9166,-3.9199,-3.9253,-3.9293,-3.9288,-3.9325,-3.936,-3.9343,-3.9371,-3.9369,-3.9371,-3.9213,-3.9194,-3.9384,-3.9384,-3.9384,-3.9384,-3.9384,-3.9384,-3.9086,-3.9163,-3.9152,-3.9234,-3.9238,-3.9292,-3.9307,-3.9326,-3.9338,-3.9401,-3.9434,-3.943,-3.9438,-3.9474,-3.951,-3.9507,-3.9524,-3.9558,-3.9549,-3.9403,-3.9382,-3.9362,-3.9343,-3.9562,-3.9562,-3.9703,-3.9705,-3.9706]},{"header":{"parameterUnit":"m.s-1","parameterCategory":1,"la1":30.2991,"la2":30.254,"lo1":-89.0895,"lo2":-89.0444,"dy":0.0017,"dx":0.0017,"nx":28,"ny":28,"refTime":"2025-11-27T09:00:00:Z","depth":0,"parameterNumber":3,"parameterNumberName":"V-component_of_WINDS"},"data":[0,0,0,0,0,0,0,0,0,0,0,0,0,0,0,0,0,0,0,0,0,0,0,0,0,0,0,0,0,0,0,0,0,0,0,0,0,0,0,0,0,0,0,0,0,0,0,0,0,0,0,0,0,0,0,0,0,0,-6.4234,-6.4235,0,-6.4327,-6.4328,-6.4329,-6.4262,-6.4259,-6.4256,-6.4253,-6.4343,-6.4348,-6.4353,0,0,0,0,0,0,0,0,0,0,0,0,0,-6.3994,-6.3999,-6.4234,-6.4235,-6.4236,-6.4327,-6.4328,-6.4329,-6.4263,-6.4259,-6.4255,-6.4252,-6.4342,-6.4348,-6.4354,0,0,0,0,0,0,0,0,0,0,0,0,0,-6.4093,-6.4,-6.4234,-6.4214,-6.4213,-6.4326,-6.4328,-6.4329,-6.4263,-6.4259,-6.4254,-6.425,-6.434,-6.4347,-6.4355,-6.449,0,0,-6.4378,-6.4381,0,0,0,0,0,0,0,0,-6.4088,-6.4102,-6.4216,-6.4216,-6.4215,-6.4278,-6.4276,-6.4383,-6.4264,-6.4244,-6.4253,-6.4248,-6.4325,-6.4334,-6.436,-6.4495,-6.4499,-6.4379,-6.4383,-6.4387,-6.4389,0,0,0,0,0,0,0,-6.4081,-6.4098,-6.4271,-6.4218,-6.4217,-6.4199,-6.4208,-6.4296,-6.4308,-6.4246,-6.4241,-6.4253,-6.4324,-6.4353,-6.4362,-6.45,-6.4379,-6.4385,-6.439,-6.4393,-6.4749,-6.4754,0,0,0,0,0,0,-6.4077,-6.4093,-6.4268,-6.4273,-6.4139,-6.4207,-6.4217,-6.4262,-6.4307,-6.431,-6.4257,-6.425,-6.4342,-6.4353,-6.4365,-6.4527,-6.4387,-6.4394,-6.4398,-6.4744,-6.475,-6.4755,0,0,0,0,0,0,-6.4072,-6.4093,-6.4264,-6.4182,-6.4202,-6.4216,-6.4267,-6.4267,-6.4296,-6.4315,-6.4317,-6.4285,-6.4339,-6.4354,-6.446,-6.4529,-6.4397,-6.4404,-6.4739,-6.4746,-6.4753,-6.4852,0,0,0,0,0,0,-6.4065,-6.4092,-6.4145,-6.4184,-6.4207,-6.4359,-6.4271,-6.4272,-6.431,-6.4302,-6.4342,-6.4345,-6.4337,-6.4449,-6.4468,-6.4537,-6.441,-6.4732,-6.4742,-6.475,-6.4842,-6.4861,-6.4878,0,0,0,0,0,-6.4057,-6.4168,-6.4148,-6.4169,-6.4274,-6.4364,-6.4377,-6.4367,-6.4316,-6.4369,-6.4381,-6.4343,-6.4518,-6.446,-6.4481,-6.4554,-6.4728,-6.4739,-6.475,-6.4834,-6.4858,-6.4877,0,0,0,0,0,0,-6.4135,-6.4173,-6.4151,-6.4278,-6.4319,-6.4352,-6.4418,-6.4392,-6.4446,-6.4435,-6.4419,-6.4429,-6.454,-6.4557,-6.4492,-6.4687,-6.4615,-6.463,-6.4672,-6.4694,-6.4712,-6.4705,-6.4417,0,0,0,0,0,-6.4168,-6.4239,-6.4267,-6.4376,-6.4398,-6.4405,-6.4444,-6.4433,-6.4473,-6.4489,-6.4509,-6.4548,-6.4611,-6.4654,-6.4713,-6.4844,-6.4851,-6.4904,-6.4922,-6.4936,-6.495,-6.502,-6.5043,-6.4791,-6.4791,-6.4791,0,0,-6.4235,-6.4264,-6.431,-6.4393,-6.4423,-6.4496,-6.442,-6.45,-6.4553,-6.45,-6.4602,-6.4618,-6.466,-6.4779,-6.4833,-6.4797,-6.5021,-6.495,-6.4962,-6.4967,-6.5033,-6.5057,-6.5078,-6.4798,-6.4797,-6.4796,0,0,-6.4394,-6.4424,-6.4518,-6.455,-6.4597,-6.4601,-6.4623,-6.4661,-6.4671,-6.4773,-6.4735,-6.4796,-6.4907,-6.4938,-6.4969,-6.514,-6.5107,-6.516,-6.5252,-6.532,-6.534,-6.5358,-6.5418,-6.544,-6.5173,-6.5173,-6.5173,0,-6.4471,-6.4581,-6.457,-6.4653,-6.469,-6.4648,-6.4742,-6.4773,-6.4836,-6.4862,-6.4821,-6.4959,-6.4984,-6.511,-6.5151,-6.5178,-6.5202,-6.5155,-6.5339,-6.5356,-6.5372,-6.543,-6.5453,-6.5179,-6.5179,-6.5178,-6.5177,0,-6.4673,-6.475,-6.482,-6.4884,-6.4929,-6.5018,-6.5018,-6.5064,-6.5049,-6.5057,-6.5161,-6.519,-6.5254,-6.5283,-6.5268,-6.5406,-6.5383,-6.5341,-6.5268,-6.5403,-6.5456,-6.5478,-6.5188,-6.5186,-6.5184,-6.5182,0,0,-6.4885,-6.4942,-6.4968,-6.4996,-6.5045,-6.5103,-6.5188,-6.5253,-6.5293,-6.5337,-6.5408,-6.5502,-6.5464,-6.5498,-6.5487,-6.5547,-6.568,-6.5497,-6.5498,-6.553,-6.5833,-6.5864,-6.589,-6.5658,-6.5662,-6.5666,-6.5829,0,-6.5047,-6.5199,-6.5191,-6.5332,-6.5402,-6.5362,-6.5437,-6.5473,-6.5483,-6.5542,-6.555,-6.5618,-6.5562,-6.5582,-6.564,-6.5652,-6.574,-6.5639,-6.5722,-6.5726,-6.5714,-6.5918,-6.5952,-6.6105,-6.585,-6.5854,-6.5856,0,-6.5256,-6.531,-6.5459,-6.5497,-6.5526,-6.5593,-6.5652,-6.5709,-6.5749,-6.5751,-6.5791,-6.5769,-6.5853,-6.5779,-6.5894,-6.5826,-6.5859,-6.587,-6.5875,-6.5883,-6.5799,-6.5931,-6.6154,-6.6177,-6.5889,-6.5887,-6.5884,0,-6.5396,-6.5505,-6.5609,-6.5634,-6.568,-6.5729,-6.575,-6.5786,-6.5825,-6.5875,-6.59,-6.5959,-6.5992,-6.6037,-6.6031,-6.5977,-6.6149,-6.6073,-6.6152,-6.6152,-6.619,-6.6188,-6.6421,-6.6211,-6.6211,-6.6211,-6.621,0,-6.5578,-6.567,-6.5672,-6.5736,-6.5838,-6.5827,-6.5927,-6.5943,-6.5975,-6.604,-6.6008,-6.6068,-6.6057,-6.6117,-6.6113,-6.6209,-6.6224,-6.6227,-6.6224,-6.623,-6.623,-6.6251,-6.6241,-6.6217,-6.6215,-6.6214,-6.6213,0,-6.5751,-6.5756,-6.5866,-6.5901,-6.5912,-6.5986,-6.6015,-6.6074,-6.608,-6.6162,-6.6181,-6.619,-6.6259,-6.6258,-6.6336,-6.6333,-6.6451,-6.6437,-6.6439,-6.6436,-6.6514,-6.6507,-6.677,-6.6803,-6.6572,-6.6574,-6.6576,0,-6.5867,-6.5938,-6.5981,-6.6023,-6.6048,-6.6115,-6.6156,-6.6147,-6.619,-6.624,-6.6293,-6.636,-6.6413,-6.6525,-6.6537,-6.6597,-6.6583,-6.6671,-6.6592,-6.6595,-6.6584,-6.658,-6.6587,-6.6687,-6.6689,-6.6691,-6.6693,0,-6.6072,-6.6071,-6.6132,-6.6193,-6.6243,-6.629,-6.6334,-6.6369,-6.6365,-6.6414,-6.6486,-6.6527,-6.6607,-6.6673,-6.673,-6.675,-6.6721,-6.6718,-6.6739,-6.6746,-6.6744,-6.6746,-6.6481,-6.6712,-6.671,-6.6709,-6.6708,-6.6707,-6.622,-6.6281,-6.6321,-6.6389,-6.6422,-6.6463,-6.6521,-6.6535,-6.6595,-6.6661,-6.6651,-6.6731,-6.6767,-6.6841,-6.6866,-6.6926,-6.6895,-6.6926,-6.6934,-6.6942,-6.6951,-6.6734,-6.6937,-6.6936,-6.6936,-6.6935,-6.6935,0,-6.6424,-6.6448,-6.6511,-6.6573,-6.6627,-6.6596,-6.6643,-6.6689,-6.676,-6.6797,-6.6851,-6.6932,-6.6996,-6.7013,-6.7074,-6.712,-6.7108,-6.7136,-6.7132,-6.7137,-6.6975,-6.6951,-6.7144,-6.7144,-6.7144,-6.7144,-6.7144,-6.7144,-6.6536,-6.6637,-6.6641,-6.6757,-6.678,-6.6859,-6.6888,-6.6926,-6.6956,-6.7049,-6.7102,-6.7114,-6.7143,-6.7206,-6.7263,-6.7266,-6.729,-6.7323,-6.7321,-6.717,-6.7149,-6.7129,-6.7106,-6.7329,-6.7329,-6.7478,-6.748,-6.7481]}]]